Wind_Speed
7 7 6 6 5 5 6 5 5 5 5 5 6 7 7 7 7 7 9 8 8 9 9 9 10 12 13 13 14 16 17 17 16 16 15 13 12 11 10 9 8 7 6
5 5 5 5 5 5 5 4 4 3 3 3 3 5 6 6 6 6 6 7 7 8 9 10 10 10 12 12 13 14 18 19 18 18 17 16 15 14 12 11 11 10 8
4 4 4 4 4 4 3 3 3 3 2 1 1 2 2 4 6 5 5 6 6 7 8 9 9 10 11 11 12 13 16 19 19 20 19 19 18 17 15 14 13 12 11
3 3 3 3 3 3 3 2 2 2 2 2 1 1 1 2 4 4 4 5 5 6 7 8 9 9 10 12 12 12 14 16 19 20 20 21 20 19 18 17 16 15 14
3 3 3 2 3 3 2 2 1 1 1 2 2 2 2 3 4 4 4 5 5 6 7 7 8 9 9 10 12 12 13 15 17 20 20 21 22 22 21 20 19 17 16
2 2 2 2 2 2 2 2 3 3 2 2 2 2 3 3 4 4 5 5 6 6 7 7 8 9 9 10 11 11 12 13 16 18 20 21 22 23 24 23 22 20 19
2 1 0 2 2 2 2 3 4 4 4 4 4 4 3 4 4 4 5 5 6 7 7 8 9 9 9 10 10 11 12 12 14 16 18 20 22 23 24 25 25 24 23
3 2 1 1 2 3 3 3 4 4 4 4 4 5 5 4 4 5 6 6 7 8 9 9 10 10 10 11 11 11 13 13 13 15 16 17 19 21 22 24 25 26 26
3 3 2 1 1 1 2 2 3 3 4 4 5 5 5 5 6 6 7 8 8 9 10 10 11 11 11 11 12 13 13 14 14 15 16 18 19 20 21 22 24 26 28
5 4 3 2 2 1 0 2 2 3 3 4 5 6 6 6 7 7 9 9 10 11 11 11 12 12 13 13 13 14 15 15 15 16 17 18 19 20 22 22 23 24 26
6 5 5 4 3 3 3 3 4 4 5 6 7 8 8 9 9 10 10 11 11 12 12 13 13 13 14 14 14 15 16 16 16 17 18 18 19 20 22 22 24 25 26
7 7 7 6 6 6 6 6 7 7 8 8 9 10 11 11 12 13 14 13 13 13 14 14 15 15 15 15 16 17 17 18 18 19 19 20 20 21 21 23 24 25 26
9 9 8 8 8 8 9 9 10 10 11 12 13 13 14 15 16 16 16 16 16 15 16 17 17 18 18 17 18 19 19 19 20 21 21 21 22 22 23 23 24 25 26
11 11 11 11 11 11 12 13 13 14 15 16 16 17 17 18 18 19 19 19 19 19 18 18 19 20 21 20 20 20 21 21 22 23 23 24 24 25 25 25 26 27 27
13 13 13 13 14 14 15 16 17 18 19 19 20 20 21 21 22 22 22 23 23 23 22 21 21 22 22 22 22 22 22 23 24 24 25 25 26 27 27 28 28 28 29
16 16 16 17 17 18 18 19 20 21 22 22 23 23 24 24 25 25 26 26 26 26 26 25 23 23 23 24 24 25 25 25 26 26 26 27 27 28 29 30 30 31 31
18 18 19 19 20 20 21 22 22 23 24 25 25 26 27 27 27 28 28 28 28 28 28 28 27 26 25 26 26 25 26 26 26 27 27 28 28 29 30 30 31 32 33
21 21 22 22 22 23 23 24 25 25 26 27 28 28 29 29 30 30 30 30 30 30 30 30 30 30 29 28 28 28 28 28 28 29 29 29 29 29 30 31 32 32 33
23 24 24 25 25 25 26 27 28 28 29 29 30 30 30 31 31 32 32 32 33 33 33 32 32 33 32 32 31 31 31 31 31 31 31 31 31 32 32 32 33 33 34
25 26 26 27 27 28 29 29 30 30 31 31 32 32 32 33 34 34 34 35 36 36 36 35 35 35 35 34 34 33 33 33 33 34 33 33 33 34 34 35 34 34 35
27 28 28 29 29 30 30 31 32 33 33 33 34 34 35 36 37 37 38 38 38 39 39 39 39 39 39 38 38 37 37 36 36 37 36 35 35 34 35 36 36 36 36
29 30 30 32 32 32 32 33 34 35 36 36 37 38 39 39 40 40 41 41 42 42 43 43 43 42 42 42 42 41 41 40 39 39 39 37 37 37 37 36 36 37 37
31 32 34 34 34 34 35 36 38 39 39 39 40 41 42 43 44 44 44 44 45 46 46 47 47 46 46 45 45 44 43 43 41 41 41 39 39 39 39 39 38 37 38
34 35 35 36 37 37 38 39 41 42 43 43 44 45 46 46 47 48 48 47 47 48 49 50 50 49 49 49 49 48 47 46 44 43 44 43 42 41 41 40 40 39 39
38 38 39 40 41 41 42 42 43 44 46 47 48 49 49 50 51 52 53 52 52 52 52 53 53 53 52 52 52 52 50 49 47 46 46 45 44 44 43 42 41 41 40
40 40 42 43 43 43 44 45 47 48 49 50 51 52 54 55 56 56 57 57 57 57 57 58 57 56 55 55 54 54 54 53 52 50 49 49 48 47 45 44 44 43 42
Wind_Direction
295 295 293 292 289 289 287 290 288 286 268 258 249 246 245 240 240 248 254 255 256 257 256 258 256 248 245 244 242 238 234 233 233 230 229 228 227 225 225 225 224 221 219
288 290 293 295 300 296 294 299 300 304 291 274 256 245 245 249 250 252 258 263 259 260 262 264 261 259 253 248 247 245 238 235 234 233 232 231 230 228 228 228 228 226 224
286 293 298 301 305 301 300 304 313 322 326 303 269 266 257 254 259 262 267 276 272 271 271 269 266 265 262 258 254 253 245 240 238 236 235 234 233 232 231 230 230 229 227
284 298 304 313 317 317 320 322 324 326 332 339 337 327 305 287 283 281 277 280 282 285 285 277 272 270 268 263 259 258 253 246 242 239 238 237 236 235 234 233 232 231 230
280 302 312 323 333 336 345 1 13 9 4 2 359 336 312 308 307 304 303 300 295 291 295 296 285 280 277 274 266 261 259 252 247 244 242 240 239 239 237 237 236 235 233
265 298 327 3 9 17 30 37 41 35 25 19 7 351 343 336 328 321 314 309 303 300 298 299 297 288 284 280 274 267 266 261 253 249 246 245 243 242 241 240 239 238 237
233 236 39 49 45 49 50 53 50 44 37 29 24 17 8 359 348 339 333 328 318 311 306 301 299 296 292 287 281 273 269 270 262 255 252 249 246 244 244 243 242 241 240
211 193 160 105 86 74 68 61 55 48 40 34 29 22 16 6 357 343 336 330 324 319 313 307 302 299 294 291 288 284 277 274 272 264 258 256 252 248 247 247 246 244 243
206 195 185 162 135 100 72 52 43 36 29 24 17 10 4 353 345 340 332 323 319 314 311 308 305 300 297 293 289 286 282 278 275 271 264 260 258 253 250 250 249 248 247
206 207 208 204 208 207 4 359 357 360 360 355 348 344 342 339 335 332 329 323 319 314 310 308 305 300 297 295 291 287 284 281 277 274 270 267 263 258 255 254 253 251 250
215 222 225 229 237 252 282 300 308 317 322 322 323 325 326 325 324 323 322 319 316 313 310 309 307 303 299 296 291 287 284 283 280 277 273 270 268 264 259 257 256 255 253
229 234 235 241 251 263 276 284 290 296 301 305 308 309 311 312 313 314 314 314 311 309 307 306 304 302 299 296 290 287 285 282 280 278 276 272 269 266 264 260 259 258 256
238 242 246 253 261 269 276 283 287 291 294 297 299 300 301 302 304 306 307 308 306 303 302 303 301 299 298 296 291 288 286 283 281 278 276 274 272 269 267 264 261 259 259
245 250 255 261 267 273 279 283 287 290 292 294 295 296 297 297 298 299 300 301 301 299 298 298 298 297 296 295 292 290 286 283 281 279 277 275 273 271 269 267 264 262 261
251 256 260 265 270 276 280 284 286 288 291 292 293 294 294 295 295 295 296 296 296 295 294 294 293 294 294 294 293 290 287 285 283 281 278 275 273 272 270 268 266 264 262
257 260 264 269 274 277 280 283 286 289 291 292 293 293 293 292 292 292 292 292 293 293 292 292 291 290 289 289 289 288 287 285 283 282 279 276 273 272 272 270 268 267 265
263 266 269 272 276 279 282 285 287 289 290 291 291 291 292 292 291 290 290 290 290 290 289 290 290 289 288 287 286 285 285 284 283 282 280 278 276 274 272 271 269 268 267
267 270 273 275 278 280 282 284 286 287 287 288 289 289 290 290 290 290 290 289 288 287 286 286 287 287 286 285 285 285 283 282 281 280 280 279 277 275 273 272 270 269 268
271 273 275 277 278 280 282 283 285 286 286 287 287 288 288 288 288 287 287 287 286 285 284 284 284 284 285 285 284 283 282 281 280 278 278 277 276 275 274 273 272 271 269
273 275 276 278 280 281 282 283 284 285 285 286 286 286 286 286 286 285 284 284 284 283 282 282 282 282 283 283 283 282 281 281 280 278 277 276 275 275 275 273 272 271 270
276 276 276 278 279 280 282 284 285 285 285 285 285 285 285 285 285 283 283 283 282 282 282 282 282 282 282 282 281 281 280 280 279 278 277 277 275 274 274 274 273 272 271
276 278 278 279 279 280 282 283 284 285 286 286 285 284 285 285 284 283 282 282 281 281 280 280 280 281 281 281 281 280 279 278 278 277 276 275 275 274 273 272 272 272 272
277 278 278 280 281 281 282 285 286 286 287 287 286 285 285 284 284 283 282 280 280 281 281 280 280 280 280 279 279 279 278 278 278 277 276 275 274 274 273 273 272 271 271
277 279 280 282 283 284 285 287 288 287 287 287 287 287 286 285 285 284 283 282 280 280 280 280 280 279 279 278 278 278 277 277 277 277 276 275 274 273 273 272 272 271 270
278 280 282 284 285 286 288 288 288 288 288 288 288 288 287 286 285 284 284 283 281 281 279 278 277 277 277 277 277 277 276 276 275 275 275 274 274 273 273 272 272 271 271
282 284 285 287 288 288 289 289 289 289 289 289 288 288 287 286 285 285 284 283 282 280 279 278 278 276 275 274 274 275 275 275 275 274 273 273 272 272 271 272 272 272 271
Height
5886 5886 5885 5885 5884 5884 5884 5884 5884 5884 5884 5883 5884 5885 5886 5886 5888 5889 5889 5890 5891 5891 5892 5893 5894 5896 5897 5899 5900 5902 5903 5905 5907 5908 5910 5911 5913 5915 5916 5918 5919 5920 5921
5885 5885 5885 5884 5884 5884 5884 5884 5883 5883 5883 5884 5884 5884 5885 5885 5886 5887 5888 5888 5889 5890 5891 5892 5892 5894 5895 5896 5897 5899 5901 5902 5904 5906 5908 5909 5911 5913 5914 5916 5917 5919 5920
5885 5884 5884 5884 5883 5883 5883 5883 5883 5883 5883 5883 5883 5883 5884 5885 5885 5885 5886 5887 5887 5888 5889 5890 5891 5892 5893 5894 5895 5896 5897 5899 5901 5903 5905 5907 5908 5910 5912 5913 5915 5917 5918
5884 5884 5883 5883 5883 5883 5883 5883 5883 5883 5883 5883 5883 5883 5884 5884 5884 5885 5885 5886 5887 5887 5888 5889 5889 5890 5891 5892 5892 5894 5895 5896 5898 5900 5902 5903 5905 5907 5909 5911 5912 5914 5916
5883 5883 5883 5883 5883 5882 5882 5882 5882 5882 5883 5883 5883 5883 5883 5884 5884 5884 5884 5885 5886 5886 5887 5887 5887 5888 5888 5889 5890 5891 5892 5893 5895 5897 5898 5900 5902 5904 5906 5908 5910 5911 5913
5883 5883 5883 5883 5883 5882 5882 5882 5882 5882 5882 5882 5883 5883 5883 5883 5883 5883 5884 5884 5884 5885 5885 5885 5885 5886 5886 5887 5888 5889 5889 5890 5891 5893 5895 5896 5898 5900 5902 5904 5906 5908 5910
5882 5882 5882 5883 5883 5883 5883 5883 5882 5882 5882 5882 5883 5883 5883 5883 5883 5883 5883 5883 5883 5883 5884 5884 5884 5884 5884 5885 5885 5886 5887 5888 5888 5889 5891 5892 5894 5896 5897 5900 5902 5904 5906
5881 5882 5882 5883 5883 5883 5883 5883 5883 5883 5883 5882 5883 5883 5883 5883 5882 5882 5882 5882 5882 5882 5882 5882 5882 5882 5882 5883 5883 5883 5884 5885 5885 5886 5887 5888 5890 5891 5893 5895 5897 5899 5901
5881 5881 5882 5883 5883 5883 5883 5883 5883 5883 5883 5883 5883 5883 5882 5882 5882 5882 5881 5881 5881 5880 5880 5880 5880 5880 5880 5880 5880 5880 5881 5881 5882 5883 5883 5884 5886 5887 5888 5890 5892 5894 5896
5880 5881 5882 5882 5883 5883 5883 5883 5883 5883 5882 5882 5882 5882 5882 5881 5881 5881 5880 5879 5879 5878 5878 5878 5877 5877 5877 5877 5877 5877 5877 5878 5878 5879 5879 5880 5881 5882 5884 5885 5887 5888 5890
5879 5880 5881 5882 5882 5882 5882 5882 5882 5882 5882 5882 5881 5881 5880 5880 5879 5879 5879 5878 5877 5876 5875 5875 5874 5874 5874 5874 5874 5873 5873 5874 5874 5874 5875 5876 5877 5878 5879 5880 5881 5883 5884
5878 5879 5880 5881 5881 5881 5881 5881 5881 5881 5880 5880 5880 5879 5879 5878 5877 5876 5876 5875 5874 5874 5873 5872 5871 5871 5870 5870 5870 5869 5869 5870 5870 5870 5870 5871 5872 5873 5873 5875 5876 5877 5878
5877 5878 5878 5879 5879 5879 5879 5879 5879 5879 5878 5878 5877 5877 5876 5875 5875 5874 5873 5872 5871 5871 5870 5869 5868 5867 5866 5866 5865 5865 5865 5865 5865 5865 5865 5865 5866 5867 5868 5869 5870 5871 5872
5875 5875 5876 5876 5877 5877 5877 5876 5876 5876 5875 5875 5874 5874 5873 5872 5871 5870 5869 5868 5868 5867 5866 5866 5864 5863 5862 5861 5861 5860 5860 5859 5859 5859 5859 5859 5860 5860 5861 5862 5863 5864 5865
5872 5872 5873 5873 5873 5873 5873 5873 5873 5872 5872 5871 5870 5870 5869 5868 5867 5866 5865 5864 5863 5862 5861 5861 5860 5858 5857 5856 5855 5854 5854 5853 5853 5853 5853 5853 5853 5853 5854 5855 5856 5856 5857
5868 5869 5869 5869 5869 5869 5869 5868 5868 5868 5867 5866 5866 5865 5864 5863 5862 5861 5859 5858 5857 5856 5855 5855 5854 5853 5852 5850 5850 5848 5848 5847 5846 5846 5846 5846 5846 5846 5846 5847 5847 5848 5849
5864 5864 5864 5864 5864 5864 5864 5863 5863 5862 5861 5860 5859 5858 5857 5856 5855 5854 5853 5852 5851 5850 5849 5848 5847 5846 5846 5844 5843 5842 5841 5840 5840 5839 5839 5838 5838 5838 5838 5839 5839 5840 5840
5859 5859 5859 5859 5858 5858 5857 5857 5856 5855 5855 5854 5853 5852 5851 5849 5848 5847 5846 5845 5844 5843 5842 5841 5839 5839 5838 5837 5836 5835 5834 5833 5833 5832 5831 5830 5830 5830 5830 5830 5830 5831 5831
5853 5852 5852 5852 5851 5851 5850 5850 5849 5848 5847 5846 5846 5845 5843 5842 5841 5839 5838 5837 5836 5835 5834 5833 5832 5830 5830 5829 5828 5827 5826 5825 5824 5824 5823 5822 5822 5821 5821 5821 5821 5822 5822
5845 5845 5845 5844 5843 5843 5842 5842 5841 5840 5839 5838 5837 5836 5835 5834 5832 5831 5830 5828 5827 5825 5824 5824 5823 5822 5821 5819 5819 5818 5817 5816 5815 5814 5814 5814 5813 5812 5812 5811 5812 5812 5812
5838 5837 5837 5836 5835 5834 5833 5833 5832 5831 5830 5829 5828 5827 5826 5824 5823 5821 5820 5819 5817 5816 5815 5814 5813 5812 5811 5809 5809 5808 5807 5806 5805 5804 5804 5803 5803 5803 5802 5801 5801 5801 5801
5829 5827 5828 5827 5826 5825 5824 5823 5822 5821 5820 5819 5818 5817 5815 5814 5812 5811 5809 5807 5806 5805 5804 5802 5802 5801 5800 5798 5797 5796 5795 5795 5795 5794 5793 5793 5792 5792 5791 5791 5791 5790 5790
5820 5819 5818 5817 5816 5815 5814 5813 5811 5810 5809 5808 5806 5805 5803 5802 5800 5799 5797 5795 5794 5792 5791 5789 5789 5788 5787 5785 5784 5783 5782 5782 5782 5781 5780 5781 5781 5780 5780 5779 5780 5780 5779
5810 5809 5808 5807 5806 5804 5803 5801 5800 5798 5796 5795 5793 5791 5790 5788 5786 5784 5783 5782 5780 5779 5777 5775 5774 5774 5772 5771 5769 5769 5768 5768 5769 5768 5767 5768 5768 5768 5767 5767 5767 5767 5767
5800 5798 5798 5796 5794 5792 5791 5789 5787 5785 5783 5781 5779 5777 5775 5773 5771 5768 5767 5766 5765 5763 5761 5759 5758 5758 5757 5756 5754 5753 5753 5753 5754 5754 5753 5753 5754 5753 5754 5754 5754 5754 5755
5790 5788 5787 5784 5782 5780 5778 5776 5774 5771 5769 5767 5765 5762 5759 5756 5754 5752 5750 5749 5747 5746 5743 5742 5741 5741 5740 5740 5738 5737 5736 5736 5737 5739 5739 5738 5739 5739 5740 5741 5740 5741 5741